This is the latest recevied weather packets stored in our database for station/object K5OLV. If no packets are shown the sender has not sent any weather packets the latest 10 day(s).
| Time | Temp. | Humidity | Pressure | Rain* | Wind** | Luminosity | Snow |
|---|---|---|---|---|---|---|---|
| 1788460529 | 33.89° C | 56% | 1016.1 hPa | 0 mm | - | 636 W/m² | - |
| 1788460224 | 33.33° C | 56% | 1016.3 hPa | 0 mm | - | 668 W/m² | - |
| 1788459922 | 33.89° C | 56% | 1016.1 hPa | 0 mm | - | 658 W/m² | - |
| 1788459619 | 35° C | 55% | 1016.4 hPa | 0 mm | - | 439 W/m² | - |
| 1788459318 | 34.44° C | 56% | 1016.5 hPa | 0 mm | - | 703 W/m² | - |
| 1788459018 | 33.89° C | 54% | 1016.4 hPa | 0 mm | - | 709 W/m² | - |
| 1788458713 | 33.89° C | 56% | 1016.6 hPa | 0 mm | - | 725 W/m² | - |
| 1788458412 | 34.44° C | 57% | 1016.7 hPa | 0 mm | - | 645 W/m² | - |
| 1788458111 | 33.89° C | 57% | 1016.7 hPa | 0 mm | - | 680 W/m² | - |
| 1788457811 | 34.44° C | 54% | 1016.7 hPa | 0 mm | - | 674 W/m² | - |
| 1788457505 | 33.33° C | 58% | 1016.6 hPa | 0 mm | - | 697 W/m² | - |
| 1788457200 | 34.44° C | 56% | 1016.8 hPa | 0 mm | - | 705 W/m² | - |
| 1788456895 | 35° C | 56% | 1017 hPa | 0 mm | - | 691 W/m² | - |
| 1788456591 | 35° C | 54% | 1016.9 hPa | 0 mm | - | 685 W/m² | - |
| 1788456286 | 34.44° C | 58% | 1017 hPa | 0 mm | - | 693 W/m² | - |
| 1788455981 | 33.33° C | 58% | 1017 hPa | 0 mm | - | 687 W/m² | - |
| 1788455676 | 32.22° C | 67% | 1017 hPa | 0 mm | - | 685 W/m² | - |
| 1788455377 | 32.22° C | 67% | 1017 hPa | 0 mm | - | 693 W/m² | - |
| 1788455071 | 31.67° C | 67% | 1017.3 hPa | 0 mm | - | 675 W/m² | - |
| 1788454770 | 31.67° C | 65% | 1017.4 hPa | 0 mm | - | 667 W/m² | - |
| 1788454465 | 32.22° C | 65% | 1017.2 hPa | 0 mm | - | 684 W/m² | - |
| 1788454165 | 31.11° C | 64% | 1017.2 hPa | 0 mm | - | 701 W/m² | - |
| 1788453860 | 30.56° C | 68% | 1017.5 hPa | 0 mm | - | 711 W/m² | - |
| 1788453560 | 31.67° C | 69% | 1017.5 hPa | 0 mm | - | 711 W/m² | - |
| 1788453256 | 31.11° C | 69% | 1017.4 hPa | 0 mm | - | 638 W/m² | - |
* Rain latest hour (hover to see other rain measurements)
** Current wind speed in m/s (hover to see current wind gust speed)